[[{"header":{"parameterUnit":"m.s-1","parameterCategory":1,"la1":30.2991,"la2":30.254,"lo1":-89.0895,"lo2":-89.0444,"dy":0.0017,"dx":0.0017,"nx":28,"ny":28,"refTime":"2024-06-23T21:00:00:Z","depth":0,"parameterNumber":2,"parameterNumberName":"U-component_of_WINDS"},"data":[0,0,0,0,0,0,0,0,0,0,0,0,0,0,0,0,0,0,0,0,0,0,0,0,0,0,0,0,0,0,0,0,0,0,0,0,0,0,0,0,0,0,0,0,0,0,0,0,0,0,0,0,0,0,0,0,0,0,4.6293,4.6294,0,4.6424,4.6426,4.6427,4.6358,4.6355,4.6351,4.6348,4.6484,4.6491,4.6498,0,0,0,0,0,0,0,0,0,0,0,0,0,4.5981,4.5987,4.6292,4.6294,4.6296,4.6424,4.6426,4.6428,4.6359,4.6355,4.6351,4.6346,4.6482,4.649,4.6498,0,0,0,0,0,0,0,0,0,0,0,0,0,4.6115,4.5989,4.6292,4.6277,4.6277,4.6424,4.6426,4.6428,4.636,4.6355,4.6349,4.6344,4.6479,4.6489,4.6499,4.6669,0,0,4.6531,4.6535,0,0,0,0,0,0,0,0,4.6107,4.6126,4.6278,4.6278,4.6278,4.6369,4.6366,4.6509,4.6361,4.6329,4.6348,4.6342,4.645,4.6463,4.6499,4.6675,4.6681,4.6532,4.6538,4.6543,4.6546,0,0,0,0,0,0,0,4.6098,4.612,4.6345,4.628,4.628,4.6263,4.6277,4.6393,4.6417,4.6331,4.6326,4.6343,4.645,4.6489,4.6502,4.6683,4.6532,4.6541,4.6547,4.6551,4.7002,4.7008,0,0,0,0,0,0,4.609,4.6113,4.634,4.6349,4.6178,4.6273,4.6288,4.6346,4.6416,4.6422,4.6347,4.6339,4.6474,4.649,4.6506,4.6707,4.6543,4.6552,4.6558,4.6997,4.7004,4.701,0,0,0,0,0,0,4.6083,4.6111,4.6335,4.623,4.6257,4.6284,4.635,4.6351,4.6391,4.6428,4.6432,4.6383,4.6471,4.6492,4.6628,4.6711,4.6557,4.6566,4.699,4.6999,4.7007,4.7113,0,0,0,0,0,0,4.6075,4.6109,4.6174,4.6232,4.6263,4.6456,4.6355,4.6357,4.6409,4.6399,4.6463,4.6469,4.6468,4.6613,4.6639,4.6723,4.6574,4.6983,4.6994,4.7004,4.7102,4.7124,4.7143,0,0,0,0,0,4.6064,4.6199,4.6177,4.6205,4.6345,4.6461,4.6478,4.6475,4.6416,4.6481,4.6504,4.6467,4.6698,4.6628,4.6656,4.6744,4.6977,4.6991,4.7003,4.7093,4.7119,4.7142,0,0,0,0,0,0,4.6151,4.6206,4.6183,4.6341,4.6397,4.6449,4.6531,4.6504,4.6577,4.6566,4.6558,4.6573,4.6715,4.6743,4.6664,4.6911,4.6829,4.6848,4.6887,4.6913,4.6933,4.6922,4.6583,0,0,0,0,0,4.6189,4.6278,4.6322,4.6457,4.6486,4.6504,4.6554,4.6547,4.6604,4.6627,4.6661,4.6718,4.6803,4.686,4.694,4.7106,4.7117,4.718,4.7201,4.7217,4.7234,4.7321,4.7348,4.7053,4.7053,4.7052,0,0,4.6268,4.6309,4.6366,4.6476,4.6518,4.661,4.6524,4.6626,4.6694,4.6643,4.6773,4.68,4.6863,4.7014,4.7082,4.7042,4.7318,4.7234,4.7247,4.7254,4.7337,4.7365,4.739,4.7061,4.706,4.7058,0,0,4.6458,4.6499,4.6615,4.6659,4.6723,4.6733,4.6761,4.6817,4.6833,4.6964,4.6926,4.7007,4.7155,4.72,4.7243,4.7449,4.7416,4.7475,4.7582,4.7667,4.769,4.771,4.7782,4.7808,4.7492,4.7492,4.7492,0,4.6548,4.6686,4.6679,4.6783,4.6831,4.6788,4.6904,4.6947,4.7035,4.7069,4.7023,4.7206,4.7245,4.7405,4.7455,4.7492,4.7522,4.7468,4.7687,4.7708,4.7727,4.7795,4.7822,4.7499,4.7498,4.7497,4.7497,0,4.6792,4.6888,4.6974,4.7058,4.7117,4.7227,4.7236,4.7296,4.7282,4.7298,4.743,4.7476,4.7564,4.7602,4.7591,4.776,4.7732,4.7687,4.7604,4.7762,4.7825,4.7851,4.7508,4.7506,4.7504,4.7502,0,0,4.7042,4.712,4.7151,4.7188,4.7255,4.7328,4.7436,4.7521,4.7572,4.7634,4.7722,4.7848,4.7805,4.7853,4.7847,4.7922,4.8079,4.7867,4.7868,4.7903,4.8266,4.8298,4.8329,4.8058,4.8063,4.8067,4.826,0,4.7236,4.7423,4.7419,4.7593,4.768,4.7639,4.7732,4.7783,4.78,4.7876,4.7895,4.7983,4.7921,4.795,4.8022,4.8044,4.8151,4.8031,4.8139,4.8143,4.8123,4.8362,4.8398,4.8578,4.8285,4.8289,4.8292,0,4.7487,4.7555,4.7738,4.7789,4.7826,4.791,4.7986,4.806,4.8116,4.8123,4.8176,4.8157,4.8265,4.8179,4.8327,4.8245,4.8289,4.8307,4.8313,4.8322,4.8226,4.8376,4.8635,4.8662,4.8332,4.8328,4.8326,0,4.7649,4.7787,4.7913,4.7946,4.801,4.8069,4.8099,4.8149,4.82,4.8267,4.83,4.8379,4.8422,4.8484,4.8486,4.8424,4.8634,4.855,4.8642,4.8642,4.8687,4.8684,4.8956,4.8719,4.8718,4.8718,4.8717,0,4.7865,4.7978,4.7986,4.8064,4.8188,4.8182,4.8305,4.8329,4.8374,4.8454,4.8424,4.8501,4.85,4.8577,4.858,4.8701,4.8721,4.8729,4.8728,4.8731,4.8729,4.8758,4.8745,4.8725,4.8723,4.8722,4.8721,0,4.8067,4.8077,4.8211,4.826,4.8275,4.8364,4.8405,4.8479,4.8492,4.8594,4.8618,4.8639,4.8729,4.8737,4.8842,4.8843,4.8988,4.8975,4.8969,4.8967,4.9058,4.9048,4.9356,4.9395,4.9134,4.9137,4.9139,0,4.8203,4.8288,4.8346,4.8397,4.8429,4.8513,4.8564,4.8561,4.8615,4.8684,4.8749,4.8835,4.8904,4.9048,4.9073,4.9152,4.9139,4.9241,4.9151,4.915,4.9138,4.9132,4.914,4.9259,4.9261,4.9264,4.9266,0,4.8443,4.8444,4.8518,4.8595,4.8656,4.8716,4.8772,4.8816,4.8819,4.8882,4.8972,4.9025,4.9131,4.9216,4.9293,4.9323,4.9295,4.9294,4.9319,4.9322,4.9315,4.9318,4.9015,4.9287,4.9285,4.9283,4.9282,4.9281,4.8616,4.8688,4.8739,4.8823,4.8864,4.8917,4.8987,4.9008,4.9084,4.9168,4.9162,4.9262,4.9313,4.9414,4.9449,4.9526,4.9492,4.9529,4.9538,4.9547,4.9555,4.9303,4.9541,4.954,4.954,4.9539,4.9539,0,4.8853,4.8883,4.896,4.9038,4.9103,4.907,4.913,4.9187,4.9275,4.9325,4.9392,4.9495,4.9577,4.9608,4.9688,4.9744,4.9732,4.9764,4.9759,4.9766,4.9582,4.9552,4.9772,4.9772,4.9772,4.9772,4.9772,4.9772,4.8984,4.9104,4.911,4.9251,4.928,4.9377,4.9413,4.9461,4.9501,4.9617,4.9684,4.9703,4.9745,4.9827,4.9901,4.9907,4.9937,4.9975,4.9976,4.9803,4.978,4.9757,4.9728,4.9982,4.9982,5.0153,5.0154,5.0156]},{"header":{"parameterUnit":"m.s-1","parameterCategory":1,"la1":30.2991,"la2":30.254,"lo1":-89.0895,"lo2":-89.0444,"dy":0.0017,"dx":0.0017,"nx":28,"ny":28,"refTime":"2024-06-23T21:00:00:Z","depth":0,"parameterNumber":3,"parameterNumberName":"V-component_of_WINDS"},"data":[0,0,0,0,0,0,0,0,0,0,0,0,0,0,0,0,0,0,0,0,0,0,0,0,0,0,0,0,0,0,0,0,0,0,0,0,0,0,0,0,0,0,0,0,0,0,0,0,0,0,0,0,0,0,0,0,0,0,0.7975,0.7976,0,0.8013,0.8013,0.8014,0.7978,0.7976,0.7975,0.7973,0.8017,0.802,0.8022,0,0,0,0,0,0,0,0,0,0,0,0,0,0.7876,0.7878,0.7975,0.7976,0.7976,0.8013,0.8014,0.8014,0.7978,0.7976,0.7974,0.7973,0.8016,0.8019,0.8022,0,0,0,0,0,0,0,0,0,0,0,0,0,0.7917,0.7879,0.7975,0.7962,0.7962,0.8013,0.8014,0.8014,0.7978,0.7976,0.7974,0.7972,0.8015,0.8019,0.8023,0.809,0,0,0.8034,0.8036,0,0,0,0,0,0,0,0,0.7915,0.7921,0.7964,0.7963,0.7963,0.7988,0.7995,0.804,0.7979,0.7972,0.7973,0.7971,0.801,0.8014,0.8026,0.8092,0.8094,0.8035,0.8037,0.8039,0.804,0,0,0,0,0,0,0,0.7912,0.7919,0.799,0.7965,0.7964,0.7956,0.796,0.8003,0.8003,0.7972,0.797,0.7975,0.8009,0.8022,0.8027,0.8095,0.8035,0.8038,0.804,0.8042,0.8219,0.8221,0,0,0,0,0,0,0.791,0.7917,0.7989,0.7991,0.7933,0.796,0.7964,0.7982,0.8002,0.8003,0.7976,0.7973,0.8017,0.8022,0.8028,0.8109,0.8039,0.8042,0.8044,0.8217,0.822,0.8222,0,0,0,0,0,0,0.7908,0.7917,0.7988,0.7954,0.7962,0.7964,0.7985,0.7984,0.7997,0.8005,0.8005,0.799,0.8015,0.8023,0.8075,0.811,0.8044,0.8047,0.8214,0.8217,0.8221,0.8271,0,0,0,0,0,0,0.7906,0.7916,0.7941,0.7954,0.7964,0.8033,0.7987,0.7987,0.8003,0.7999,0.8018,0.8019,0.8014,0.8069,0.8079,0.8114,0.805,0.8211,0.8215,0.822,0.8266,0.8276,0.8284,0,0,0,0,0,0.7902,0.7955,0.7942,0.7951,0.7994,0.8035,0.804,0.8032,0.8006,0.8032,0.8037,0.8018,0.8104,0.8075,0.8085,0.8122,0.8208,0.8214,0.8219,0.8262,0.8274,0.8284,0,0,0,0,0,0,0.7947,0.7956,0.7943,0.8001,0.8017,0.8028,0.806,0.8045,0.807,0.8065,0.8056,0.806,0.8115,0.8124,0.8091,0.8189,0.8152,0.816,0.8181,0.8193,0.8201,0.8199,0.8053,0,0,0,0,0,0.7964,0.7994,0.8001,0.8051,0.806,0.8059,0.8076,0.8068,0.8085,0.8092,0.8101,0.812,0.8151,0.8172,0.8201,0.8266,0.8271,0.8297,0.8306,0.8313,0.8321,0.8357,0.8369,0.824,0.824,0.824,0,0,0.7999,0.8007,0.8027,0.8061,0.8072,0.8105,0.8065,0.8102,0.8127,0.8099,0.8148,0.8155,0.8175,0.8235,0.8261,0.8243,0.8357,0.832,0.8326,0.833,0.8364,0.8376,0.8387,0.8244,0.8243,0.8243,0,0,0.8079,0.8088,0.8131,0.8144,0.8161,0.816,0.817,0.8183,0.8187,0.8236,0.8215,0.8246,0.8299,0.8315,0.833,0.8416,0.84,0.8425,0.8473,0.8508,0.8519,0.8528,0.856,0.8571,0.8432,0.8432,0.8433,0,0.8121,0.8169,0.8156,0.8194,0.821,0.8184,0.8229,0.8242,0.8269,0.8281,0.826,0.8327,0.8339,0.8401,0.8422,0.8435,0.8448,0.8424,0.8518,0.8527,0.8535,0.8565,0.8577,0.8436,0.8435,0.8435,0.8435,0,0.822,0.8253,0.8286,0.8311,0.833,0.8372,0.8367,0.8388,0.8379,0.838,0.8431,0.8444,0.8476,0.849,0.8481,0.8552,0.854,0.8519,0.8482,0.855,0.8579,0.859,0.844,0.8439,0.8438,0.8437,0,0,0.8332,0.8348,0.836,0.8371,0.8388,0.8415,0.8455,0.8484,0.8503,0.8522,0.8557,0.8603,0.8583,0.86,0.8593,0.8624,0.8693,0.8599,0.8599,0.8617,0.8773,0.879,0.8803,0.8681,0.8683,0.8685,0.8771,0,0.8414,0.8482,0.8472,0.8539,0.857,0.8546,0.8581,0.8596,0.8599,0.8627,0.863,0.8663,0.8633,0.8643,0.8672,0.8678,0.8724,0.8671,0.8716,0.8718,0.8713,0.8818,0.8836,0.8917,0.8782,0.8784,0.8785,0,0.8519,0.854,0.861,0.8621,0.8634,0.8666,0.8692,0.8719,0.8736,0.8735,0.8754,0.8741,0.8784,0.8745,0.8804,0.8769,0.8786,0.8791,0.8794,0.88,0.8757,0.8828,0.8943,0.8955,0.8803,0.8801,0.88,0,0.8595,0.8641,0.8689,0.8699,0.8714,0.8737,0.8744,0.8759,0.8777,0.88,0.8812,0.8841,0.8857,0.888,0.8876,0.8848,0.8937,0.8897,0.8939,0.894,0.8961,0.896,0.9081,0.8969,0.8969,0.8969,0.8969,0,0.8689,0.8733,0.8723,0.8753,0.8801,0.879,0.8839,0.8844,0.8857,0.8888,0.8869,0.8899,0.8891,0.8921,0.8919,0.8969,0.8976,0.8978,0.8977,0.8981,0.8981,0.8994,0.8989,0.8972,0.8971,0.8971,0.897,0,0.8783,0.8778,0.8828,0.8838,0.8841,0.8877,0.8886,0.8914,0.8914,0.8954,0.8963,0.8964,0.8999,0.8996,0.9036,0.9034,0.9097,0.9088,0.9091,0.9089,0.9132,0.9129,0.9268,0.9286,0.916,0.9162,0.9163,0,0.8844,0.8876,0.8889,0.8907,0.8916,0.8947,0.8965,0.8954,0.8974,0.8996,0.9023,0.9055,0.908,0.9137,0.9143,0.9173,0.9167,0.9213,0.9172,0.9174,0.917,0.9168,0.9172,0.9222,0.9224,0.9225,0.9226,0,0.8953,0.8948,0.8974,0.8999,0.902,0.904,0.9058,0.9075,0.9067,0.909,0.9124,0.9144,0.9184,0.9217,0.9246,0.9256,0.9241,0.9238,0.925,0.9255,0.9256,0.9258,0.9115,0.9236,0.9235,0.9234,0.9234,0.9233,0.9033,0.9061,0.9074,0.9104,0.9116,0.9133,0.916,0.9163,0.9191,0.9221,0.9213,0.9253,0.927,0.9306,0.9319,0.935,0.9334,0.9351,0.9355,0.936,0.9365,0.9249,0.9356,0.9355,0.9355,0.9355,0.9354,0,0.9142,0.9149,0.9176,0.9201,0.9224,0.9205,0.9224,0.9245,0.9279,0.9295,0.932,0.936,0.9392,0.94,0.9431,0.9455,0.9449,0.9464,0.9463,0.9466,0.9377,0.9365,0.9468,0.9468,0.9468,0.9468,0.9468,0.9468,0.9202,0.9249,0.9246,0.93,0.9307,0.9343,0.9356,0.9372,0.9385,0.943,0.9455,0.9459,0.9472,0.9504,0.9533,0.9535,0.9548,0.9566,0.9565,0.9483,0.9472,0.9461,0.9449,0.9569,0.9569,0.9651,0.9652,0.9653]}]]